| time (UTC) | temp F | wind direction | speed MPH | gust MPH | rain 1hr in | rain 24hr in | rain mn in | humidity % | barometer mb |
| 20260508075006 | 38 | 78 | 3.0 | 4.0 | 0.00 | 0.00 | 0.00 | 53 | 1021.5 |
| 20260508074522 | 39 | 352 | 1.0 | 3.0 | 0.00 | 0.00 | 0.00 | 52 | 1021.5 |
| 20260508074006 | 38 | 51 | 1.0 | 2.0 | 0.00 | 0.00 | 0.00 | 51 | 1021.5 |
| 20260508073502 | 38 | 42 | 1.0 | 3.0 | 0.00 | 0.00 | 0.00 | 52 | 1021.6 |
| 20260508073006 | 38 | 57 | 2.0 | 5.0 | 0.00 | 0.00 | 0.00 | 53 | 1021.7 |
| 20260508072505 | 37 | 67 | 3.0 | 5.0 | 0.00 | 0.00 | 0.00 | 54 | 1021.6 |
| 20260508072005 | 38 | 283 | 2.0 | 5.0 | 0.00 | 0.00 | 0.00 | 52 | 1021.7 |
| 20260508071516 | 37 | 43 | 3.0 | 5.0 | 0.00 | 0.00 | 0.00 | 53 | 1021.8 |
| 20260508071003 | 38 | 38 | 2.0 | 4.0 | 0.00 | 0.00 | 0.00 | 52 | 1021.6 |
| 20260508070506 | 38 | 46 | 1.0 | 3.0 | 0.00 | 0.00 | 0.00 | 50 | 1021.6 |
| 20260508070022 | 38 | 49 | 1.0 | 3.0 | 0.00 | 0.00 | 0.00 | 52 | 1021.6 |
| 20260508065507 | 38 | 40 | 2.0 | 5.0 | 0.00 | 0.00 | 0.00 | 52 | 1021.7 |
| 20260508065008 | 39 | 20 | 1.0 | 5.0 | 0.00 | 0.00 | 0.00 | 51 | 1021.5 |
| 20260508064527 | 39 | 63 | 1.0 | 3.0 | 0.00 | 0.00 | 0.00 | 50 | 1021.5 |
| 20260508064011 | 39 | 298 | 1.0 | 4.0 | 0.00 | 0.00 | 0.00 | 49 | 1021.5 |
| 20260508063510 | 39 | 41 | 2.0 | 4.0 | 0.00 | 0.00 | 0.00 | 50 | 1021.6 |
| 20260508063024 | 39 | 5 | 1.0 | 5.0 | 0.00 | 0.00 | 0.00 | 48 | 1021.5 |
| 20260508062507 | 40 | 43 | 2.0 | 5.0 | 0.00 | 0.00 | 0.00 | 49 | 1021.6 |
| 20260508062003 | 40 | 80 | 3.0 | 5.0 | 0.00 | 0.00 | 0.00 | 47 | 1021.5 |
| 20260508061510 | 41 | 347 | 2.0 | 5.0 | 0.00 | 0.00 | 0.00 | 46 | 1021.5 |
| 20260508061007 | 41 | 83 | 3.0 | 4.0 | 0.00 | 0.00 | 0.00 | 46 | 1021.5 |
| 20260508060507 | 43 | 64 | 2.0 | 4.0 | 0.00 | 0.00 | 0.00 | 43 | 1021.5 |
| 20260508060016 | 44 | 77 | 2.0 | 3.0 | 0.00 | 0.00 | 0.00 | 43 | 1021.5 |
| 20260508055506 | 44 | 72 | 1.0 | 4.0 | 0.00 | 0.00 | 0.00 | 40 | 1021.5 |
| 20260508055008 | 45 | 44 | 2.0 | 4.0 | 0.00 | 0.00 | 0.00 | 40 | 1021.5 |
| 20260508054521 | 46 | 77 | 1.0 | 2.0 | 0.00 | 0.00 | 0.00 | 38 | 1021.5 |
| 20260508054008 | 46 | 49 | 1.0 | 2.0 | 0.00 | 0.00 | 0.00 | 38 | 1021.5 |
| 20260508053507 | 47 | 37 | 1.0 | 3.0 | 0.00 | 0.00 | 0.00 | 38 | 1021.4 |
| 20260508053022 | 47 | 41 | 1.0 | 3.0 | 0.00 | 0.00 | 0.00 | 38 | 1021.4 |
| 20260508052510 | 47 | 40 | 1.0 | 3.0 | 0.00 | 0.00 | 0.00 | 38 | 1021.4 |
| 20260508052009 | 47 | 318 | 1.0 | 3.0 | 0.00 | 0.00 | 0.00 | 37 | 1021.5 |
| 20260508051524 | 47 | 49 | 2.0 | 3.0 | 0.00 | 0.00 | 0.00 | 37 | 1021.5 |
| 20260508051007 | 47 | 36 | 1.0 | 2.0 | 0.00 | 0.00 | 0.00 | 37 | 1021.5 |
| 20260508050502 | 47 | 21 | 0.0 | 2.0 | 0.00 | 0.00 | 0.00 | 37 | 1021.6 |
| 20260508050012 | 48 | 30 | 0.0 | 5.0 | 0.00 | 0.00 | 0.00 | 37 | 1021.6 |
| 20260508045504 | 48 | 24 | 2.0 | 5.0 | 0.00 | 0.00 | 0.00 | 37 | 1021.5 |
| 20260508045004 | 49 | 30 | 2.0 | 4.0 | 0.00 | 0.00 | 0.00 | 36 | 1021.6 |
| 20260508044518 | 49 | 344 | 2.0 | 4.0 | 0.00 | 0.00 | 0.00 | 35 | 1021.5 |
| 20260508044006 | 49 | 13 | 1.0 | 8.0 | 0.00 | 0.00 | 0.00 | 36 | 1021.5 |
| 20260508043505 | 49 | 344 | 3.0 | 8.0 | 0.00 | 0.00 | 0.00 | 35 | 1021.5 |
| 20260508043023 | 49 | 352 | 2.0 | 5.0 | 0.00 | 0.00 | 0.00 | 35 | 1021.5 |
| 20260508042507 | 49 | 352 | 2.0 | 5.0 | 0.00 | 0.00 | 0.00 | 35 | 1021.5 |
| 20260508042010 | 49 | 344 | 3.0 | 5.0 | 0.00 | 0.00 | 0.00 | 34 | 1021.5 |
| 20260508041526 | 49 | 352 | 2.0 | 5.0 | 0.00 | 0.00 | 0.00 | 35 | 1021.5 |
| 20260508041010 | 49 | 5 | 1.0 | 8.0 | 0.00 | 0.00 | 0.00 | 35 | 1021.5 |
| 20260508040513 | 49 | 327 | 2.0 | 8.0 | 0.00 | 0.00 | 0.00 | 35 | 1021.5 |
| 20260508040034 | 49 | 323 | 3.0 | 8.0 | 0.00 | 0.00 | 0.00 | 35 | 1021.5 |
| 20260508035506 | 49 | 5 | 2.0 | 6.0 | 0.00 | 0.00 | 0.00 | 35 | 1021.5 |
| 20260508035004 | 49 | 334 | 3.0 | 5.0 | 0.00 | 0.00 | 0.00 | 34 | 1021.4 |
| 20260508034514 | 49 | 5 | 2.0 | 5.0 | 0.00 | 0.00 | 0.00 | 34 | 1021.5 |
| 20260508034005 | 50 | 342 | 2.0 | 5.0 | 0.00 | 0.00 | 0.00 | 33 | 1021.4 |
| 20260508033507 | 50 | 10 | 3.0 | 8.0 | 0.00 | 0.00 | 0.00 | 33 | 1021.3 |
| 20260508033019 | 50 | 5 | 3.0 | 9.0 | 0.00 | 0.00 | 0.00 | 33 | 1021.2 |
| 20260508032509 | 50 | 349 | 4.0 | 10.0 | 0.00 | 0.00 | 0.00 | 33 | 1021.1 |
| 20260508032011 | 51 | 348 | 5.0 | 10.0 | 0.00 | 0.00 | 0.00 | 32 | 1021.1 |
| 20260508031526 | 51 | 346 | 3.0 | 6.0 | 0.00 | 0.00 | 0.00 | 32 | 1021.2 |
| 20260508031008 | 51 | 350 | 3.0 | 6.0 | 0.00 | 0.00 | 0.00 | 32 | 1021.1 |
| 20260508030503 | 51 | 348 | 3.0 | 9.0 | 0.00 | 0.00 | 0.00 | 31 | 1021.0 |
| 20260508030008 | 52 | 311 | 3.0 | 9.0 | 0.00 | 0.00 | 0.00 | 31 | 1021.0 |
| 20260508025504 | 52 | 344 | 4.0 | 9.0 | 0.00 | 0.00 | 0.00 | 31 | 1020.9 |
| 20260508025006 | 52 | 321 | 5.0 | 9.0 | 0.00 | 0.00 | 0.00 | 30 | 1020.9 |
| 20260508024510 | 52 | 312 | 4.0 | 11.0 | 0.00 | 0.00 | 0.00 | 31 | 1020.8 |
| 20260508024003 | 53 | 343 | 5.0 | 15.0 | 0.00 | 0.00 | 0.00 | 30 | 1020.7 |
| 20260508023504 | 53 | 323 | 7.0 | 15.0 | 0.00 | 0.00 | 0.00 | 30 | 1020.6 |
| 20260508023017 | 53 | 290 | 4.0 | 14.0 | 0.00 | 0.00 | 0.00 | 29 | 1020.6 |
| 20260508022510 | 53 | 305 | 9.0 | 14.0 | 0.00 | 0.00 | 0.00 | 29 | 1020.5 |
| 20260508022008 | 53 | 304 | 5.0 | 13.0 | 0.00 | 0.00 | 0.00 | 29 | 1020.4 |
| 20260508021524 | 54 | 335 | 7.0 | 13.0 | 0.00 | 0.00 | 0.00 | 29 | 1020.4 |
| 20260508021007 | 54 | 346 | 8.0 | 18.0 | 0.00 | 0.00 | 0.00 | 29 | 1020.3 |
| 20260508020510 | 54 | 320 | 8.0 | 18.0 | 0.00 | 0.00 | 0.00 | 28 | 1020.2 |
| 20260508020033 | 54 | 290 | 5.0 | 14.0 | 0.00 | 0.00 | 0.00 | 28 | 1020.3 |
| 20260508015511 | 54 | 327 | 8.0 | 13.0 | 0.00 | 0.00 | 0.00 | 28 | 1020.1 |
| 20260508015003 | 55 | 309 | 7.0 | 12.0 | 0.00 | 0.00 | 0.00 | 28 | 1020.1 |
| 20260508014511 | 55 | 279 | 8.0 | 15.0 | 0.00 | 0.00 | 0.00 | 27 | 1020.1 |
| 20260508014004 | 55 | 329 | 10.0 | 15.0 | 0.00 | 0.00 | 0.00 | 27 | 1020.1 |
| 20260508013504 | 56 | 327 | 5.0 | 15.0 | 0.00 | 0.00 | 0.00 | 26 | 1020.0 |
| 20260508013015 | 57 | 313 | 3.0 | 15.0 | 0.00 | 0.00 | 0.00 | 25 | 1020.0 |
| 20260508012510 | 57 | 327 | 7.0 | 15.0 | 0.00 | 0.00 | 0.00 | 25 | 1019.9 |
| 20260508012004 | 57 | 317 | 7.0 | 14.0 | 0.00 | 0.00 | 0.00 | 24 | 1019.8 |
| 20260508011520 | 58 | 282 | 6.0 | 17.0 | 0.00 | 0.00 | 0.00 | 25 | 1019.8 |
| 20260508011007 | 58 | 316 | 6.0 | 17.0 | 0.00 | 0.00 | 0.00 | 24 | 1019.7 |
| 20260508010507 | 58 | 360 | 8.0 | 17.0 | 0.00 | 0.00 | 0.00 | 24 | 1019.7 |
| 20260508010027 | 59 | 337 | 7.0 | 16.0 | 0.00 | 0.00 | 0.00 | 24 | 1019.7 |
| 20260508005510 | 59 | 319 | 7.0 | 21.0 | 0.00 | 0.00 | 0.00 | 25 | 1019.6 |
| 20260508005010 | 59 | 297 | 10.0 | 21.0 | 0.00 | 0.00 | 0.00 | 25 | 1019.6 |
| 20260508004527 | 59 | 329 | 6.0 | 24.0 | 0.00 | 0.00 | 0.00 | 25 | 1019.5 |
| 20260508004005 | 60 | 275 | 9.0 | 24.0 | 0.00 | 0.00 | 0.00 | 24 | 1019.6 |
| 20260508003504 | 60 | 285 | 7.0 | 17.0 | 0.00 | 0.00 | 0.00 | 25 | 1019.7 |
| 20260508003011 | 60 | 315 | 8.0 | 17.0 | 0.00 | 0.00 | 0.00 | 24 | 1019.6 |
| 20260508002505 | 60 | 314 | 6.0 | 16.0 | 0.00 | 0.00 | 0.00 | 24 | 1019.6 |
| 20260508002003 | 61 | 302 | 5.0 | 16.0 | 0.00 | 0.00 | 0.00 | 24 | 1019.6 |
| 20260508001536 | 61 | 333 | 9.0 | 16.0 | 0.00 | 0.00 | 0.00 | 24 | 1019.6 |
| 20260508001004 | 61 | 295 | 6.0 | 21.0 | 0.00 | 0.00 | 0.00 | 24 | 1019.6 |
| 20260508000509 | 61 | 282 | 7.0 | 21.0 | 0.00 | 0.00 | 0.00 | 1019.5 | |
| 20260508000023 | 61 | 271 | 10.0 | 23.0 | 0.00 | 0.00 | 0.00 | 23 | 1019.5 |
| 20260507235508 | 61 | 259 | 10.0 | 22.0 | 0.00 | 0.00 | 0.00 | 23 | 1019.6 |
| 20260507235008 | 61 | 271 | 9.0 | 18.0 | 0.00 | 0.00 | 0.00 | 23 | 1019.5 |
| 20260507234526 | 62 | 339 | 11.0 | 18.0 | 0.00 | 0.00 | 0.00 | 22 | 1019.5 |
| 20260507234051 | 62 | 317 | 9.0 | 18.0 | 0.00 | 0.00 | 0.00 | 22 | 1019.5 |
| 20260507233507 | 62 | 360 | 8.0 | 20.0 | 0.00 | 0.00 | 0.00 | 22 | 1019.5 |
| 20260507233028 | 61 | 325 | 7.0 | 23.0 | 0.00 | 0.00 | 0.00 | 23 | 1019.4 |
| 20260507232506 | 61 | 252 | 9.0 | 23.0 | 0.00 | 0.00 | 0.00 | 22 | 1019.4 |
| 20260507232005 | 61 | 266 | 9.0 | 21.0 | 0.00 | 0.00 | 0.00 | 22 | 1019.5 |
| 20260507231513 | 60 | 238 | 6.0 | 21.0 | 0.00 | 0.00 | 0.00 | 23 | 1019.4 |
| 20260507231006 | 60 | 261 | 9.0 | 24.0 | 0.00 | 0.00 | 0.00 | 24 | 1019.5 |
| 20260507230507 | 60 | 231 | 13.0 | 24.0 | 0.00 | 0.00 | 0.00 | 23 | 1019.4 |
| 20260507230025 | 60 | 237 | 12.0 | 22.0 | 0.00 | 0.00 | 0.00 | 24 | 1019.6 |
| 20260507225508 | 60 | 277 | 13.0 | 24.0 | 0.00 | 0.00 | 0.00 | 23 | 1019.7 |
| 20260507225009 | 60 | 286 | 12.0 | 24.0 | 0.00 | 0.00 | 0.00 | 23 | 1019.8 |
| 20260507224533 | 61 | 252 | 12.0 | 23.0 | 0.00 | 0.00 | 0.00 | 24 | 1019.9 |
| 20260507224010 | 60 | 264 | 15.0 | 22.0 | 0.00 | 0.00 | 0.00 | 24 | 1019.9 |
| 20260507223513 | 60 | 267 | 10.0 | 24.0 | 0.00 | 0.00 | 0.00 | 24 | 1019.9 |
| 20260507223028 | 60 | 250 | 14.0 | 24.0 | 0.00 | 0.00 | 0.00 | 23 | 1020.0 |
| 20260507222510 | 60 | 263 | 11.0 | 17.0 | 0.00 | 0.00 | 0.00 | 24 | 1020.0 |
| 20260507222011 | 60 | 247 | 12.0 | 18.0 | 0.00 | 0.00 | 0.00 | 23 | 1020.1 |
| 20260507221530 | 60 | 265 | 13.0 | 20.0 | 0.00 | 0.00 | 0.00 | 23 | 1020.0 |
| 20260507221005 | 60 | 263 | 10.0 | 20.0 | 0.00 | 0.00 | 0.00 | 24 | 1020.0 |
| 20260507220504 | 60 | 250 | 14.0 | 20.0 | 0.00 | 0.00 | 0.00 | 23 | 1020.1 |
| 20260507220033 | 60 | 290 | 12.0 | 22.0 | 0.00 | 0.00 | 0.00 | 24 | 1020.1 |
| 20260507215507 | 60 | 294 | 10.0 | 23.0 | 0.00 | 0.00 | 0.00 | 23 | 1020.1 |
| 20260507215009 | 59 | 242 | 12.0 | 23.0 | 0.00 | 0.00 | 0.00 | 23 | 1020.3 |
| 20260507214533 | 60 | 246 | 14.0 | 21.0 | 0.00 | 0.00 | 0.00 | 23 | 1020.4 |
| 20260507214008 | 60 | 281 | 9.0 | 20.0 | 0.00 | 0.00 | 0.00 | 24 | 1020.5 |
| 20260507213508 | 59 | 232 | 7.0 | 20.0 | 0.00 | 0.00 | 0.00 | 23 | 1020.6 |
| 20260507213024 | 60 | 261 | 11.0 | 20.0 | 0.00 | 0.00 | 0.00 | 24 | 1020.6 |
| 20260507212509 | 60 | 265 | 11.0 | 20.0 | 0.00 | 0.00 | 0.00 | 24 | 1020.7 |
| 20260507212011 | 60 | 265 | 10.0 | 21.0 | 0.00 | 0.00 | 0.00 | 24 | 1020.8 |
| 20260507211534 | 60 | 236 | 11.0 | 24.0 | 0.00 | 0.00 | 0.00 | 24 | 1020.8 |
| 20260507211010 | 60 | 211 | 8.0 | 24.0 | 0.00 | 0.00 | 0.00 | 24 | 1020.8 |
| 20260507210507 | 61 | 283 | 8.0 | 22.0 | 0.00 | 0.00 | 0.00 | 22 | 1020.8 |
| 20260507210016 | 60 | 280 | 11.0 | 22.0 | 0.00 | 0.00 | 0.00 | 24 | 1021.0 |
| 20260507205506 | 59 | 283 | 12.0 | 21.0 | 0.00 | 0.00 | 0.00 | 24 | 1021.0 |
| 20260507205007 | 59 | 242 | 8.0 | 20.0 | 0.00 | 0.00 | 0.00 | 23 | 1021.1 |
| 20260507204521 | 59 | 251 | 10.0 | 20.0 | 0.00 | 0.00 | 0.00 | 23 | 1021.2 |
| 20260507204008 | 59 | 264 | 13.0 | 18.0 | 0.00 | 0.00 | 0.00 | 23 | 1021.2 |
| 20260507203509 | 58 | 220 | 8.0 | 21.0 | 0.00 | 0.00 | 0.00 | 24 | 1021.3 |
| 20260507203029 | 58 | 261 | 12.0 | 21.0 | 0.00 | 0.00 | 0.00 | 22 | 1021.5 |
| 20260507202509 | 57 | 259 | 7.0 | 17.0 | 0.00 | 0.00 | 0.00 | 23 | 1021.6 |
| 20260507202007 | 58 | 232 | 9.0 | 15.0 | 0.00 | 0.00 | 0.00 | 22 | 1021.7 |
| 20260507201526 | 58 | 239 | 7.0 | 14.0 | 0.00 | 0.00 | 0.00 | 22 | 1021.7 |
| 20260507201008 | 57 | 259 | 9.0 | 18.0 | 0.00 | 0.00 | 0.00 | 22 | 1021.8 |
| 20260507200510 | 57 | 240 | 9.0 | 18.0 | 0.00 | 0.00 | 0.00 | 21 | 1022.0 |
| 20260507200030 | 57 | 226 | 6.0 | 16.0 | 0.00 | 0.00 | 0.00 | 24 | 1022.0 |
| 20260507195508 | 57 | 275 | 9.0 | 20.0 | 0.00 | 0.00 | 0.00 | 21 | 1022.0 |
| 20260507195010 | 57 | 253 | 9.0 | 20.0 | 0.00 | 0.00 | 0.00 | 22 | 1022.1 |
| 20260507194518 | 58 | 250 | 11.0 | 20.0 | 0.00 | 0.00 | 0.00 | 21 | 1022.1 |
| 20260507194006 | 59 | 271 | 8.0 | 14.0 | 0.00 | 0.00 | 0.00 | 23 | 1022.1 |
| 20260507193507 | 58 | 258 | 5.0 | 15.0 | 0.00 | 0.00 | 0.00 | 21 | 1022.1 |
| 20260507193025 | 57 | 217 | 7.0 | 15.0 | 0.00 | 0.00 | 0.00 | 22 | 1022.1 |
| 20260507192509 | 58 | 214 | 8.0 | 15.0 | 0.00 | 0.00 | 0.00 | 1022.1 | |
| 20260507192011 | 58 | 218 | 10.0 | 15.0 | 0.00 | 0.00 | 0.00 | 22 | 1022.2 |
| 20260507191524 | 56 | 238 | 5.0 | 14.0 | 0.00 | 0.00 | 0.00 | 22 | 1022.2 |
| 20260507191009 | 56 | 179 | 8.0 | 13.0 | 0.00 | 0.00 | 0.00 | 22 | 1022.3 |
| 20260507190508 | 56 | 185 | 5.0 | 16.0 | 0.00 | 0.00 | 0.00 | 25 | 1022.2 |
| 20260507190028 | 56 | 183 | 7.0 | 16.0 | 0.00 | 0.00 | 0.00 | 22 | 1022.3 |
| 20260507185511 | 56 | 181 | 7.0 | 13.0 | 0.00 | 0.00 | 0.00 | 22 | 1022.2 |
| 20260507185011 | 56 | 182 | 7.0 | 13.0 | 0.00 | 0.00 | 0.00 | 23 | 1022.4 |
| 20260507184516 | 55 | 153 | 7.0 | 13.0 | 0.00 | 0.00 | 0.00 | 22 | 1022.4 |
| 20260507184003 | 55 | 162 | 7.0 | 11.0 | 0.00 | 0.00 | 0.00 | 24 | 1022.5 |
| 20260507183504 | 55 | 181 | 6.0 | 11.0 | 0.00 | 0.00 | 0.00 | 1022.7 | |
| 20260507183021 | 56 | 202 | 7.0 | 11.0 | 0.00 | 0.00 | 0.00 | 22 | 1022.7 |
| 20260507182507 | 55 | 219 | 6.0 | 11.0 | 0.00 | 0.00 | 0.00 | 22 | 1022.7 |
| 20260507182004 | 54 | 258 | 7.0 | 16.0 | 0.00 | 0.00 | 0.00 | 23 | 1022.7 |
| 20260507181504 | 54 | 205 | 5.0 | 16.0 | 0.00 | 0.00 | 0.00 | 22 | 1022.7 |
| 20260507181003 | 55 | 211 | 5.0 | 10.0 | 0.00 | 0.00 | 0.00 | 23 | 1022.7 |
| 20260507180506 | 54 | 135 | 5.0 | 11.0 | 0.00 | 0.00 | 0.00 | 23 | 1022.8 |
| 20260507180009 | 53 | 259 | 2.0 | 11.0 | 0.00 | 0.00 | 0.00 | 23 | 1022.9 |
| 20260507175504 | 53 | 256 | 5.0 | 10.0 | 0.00 | 0.00 | 0.00 | 23 | 1023.0 |
| 20260507175005 | 52 | 213 | 4.0 | 12.0 | 0.00 | 0.00 | 0.00 | 22 | 1023.0 |
| 20260507174512 | 53 | 264 | 6.0 | 12.0 | 0.00 | 0.00 | 0.00 | 22 | 1023.2 |
| 20260507174004 | 53 | 299 | 2.0 | 11.0 | 0.00 | 0.00 | 0.00 | 23 | 1023.2 |
| 20260507173507 | 52 | 285 | 3.0 | 12.0 | 0.00 | 0.00 | 0.00 | 22 | 1023.1 |
| 20260507173024 | 52 | 284 | 2.0 | 15.0 | 0.00 | 0.01 | 0.00 | 22 | 1023.2 |
| 20260507172506 | 53 | 5 | 7.0 | 15.0 | 0.00 | 0.01 | 0.00 | 22 | 1023.2 |
| 20260507172008 | 53 | 249 | 5.0 | 12.0 | 0.00 | 0.01 | 0.00 | 23 | 1023.2 |
| 20260507171522 | 53 | 217 | 5.0 | 12.0 | 0.00 | 0.01 | 0.00 | 22 | 1023.2 |
| 20260507171006 | 52 | 152 | 2.0 | 8.0 | 0.00 | 0.01 | 0.00 | 24 | 1023.1 |
| 20260507170504 | 52 | 178 | 3.0 | 10.0 | 0.00 | 0.01 | 0.00 | 22 | 1023.3 |
| 20260507170007 | 52 | 225 | 5.0 | 10.0 | 0.00 | 0.01 | 0.00 | 23 | 1023.3 |
| 20260507165503 | 51 | 211 | 2.0 | 7.0 | 0.00 | 0.01 | 0.00 | 23 | 1023.5 |
| 20260507165004 | 51 | 88 | 2.0 | 8.0 | 0.00 | 0.01 | 0.00 | 23 | 1023.5 |
| 20260507164511 | 51 | 196 | 3.0 | 6.0 | 0.00 | 0.01 | 0.00 | 24 | 1023.4 |
| 20260507164008 | 50 | 134 | 3.0 | 9.0 | 0.00 | 0.01 | 0.00 | 22 | 1023.5 |
| 20260507163506 | 50 | 153 | 5.0 | 9.0 | 0.00 | 0.01 | 0.00 | 24 | 1023.7 |
| 20260507163015 | 50 | 196 | 2.0 | 10.0 | 0.00 | 0.01 | 0.00 | 24 | 1023.5 |
| 20260507162503 | 50 | 205 | 5.0 | 10.0 | 0.00 | 0.01 | 0.00 | 23 | 1023.7 |
| 20260507162006 | 49 | 177 | 4.0 | 10.0 | 0.00 | 0.01 | 0.00 | 22 | 1023.7 |
| 20260507161523 | 49 | 134 | 4.0 | 10.0 | 0.00 | 0.01 | 0.00 | 24 | 1023.8 |
| 20260507161006 | 49 | 135 | 3.0 | 9.0 | 0.00 | 0.01 | 0.00 | 24 | 1023.7 |
| 20260507160506 | 49 | 163 | 3.0 | 9.0 | 0.00 | 0.01 | 0.00 | 23 | 1023.7 |
| 20260507160024 | 49 | 190 | 4.0 | 8.0 | 0.00 | 0.01 | 0.00 | 22 | 1023.7 |
| 20260507155506 | 49 | 226 | 3.0 | 7.0 | 0.00 | 0.01 | 0.00 | 23 | 1023.9 |
| 20260507155002 | 48 | 140 | 1.0 | 7.0 | 0.00 | 0.01 | 0.00 | 23 | 1023.8 |
| 20260507154510 | 48 | 243 | 3.0 | 7.0 | 0.00 | 0.01 | 0.00 | 22 | 1024.0 |
| 20260507154004 | 47 | 269 | 4.0 | 7.0 | 0.00 | 0.01 | 0.00 | 23 | 1023.9 |
| 20260507153504 | 47 | 306 | 1.0 | 7.0 | 0.00 | 0.01 | 0.00 | 22 | 1023.9 |
| 20260507153018 | 47 | 275 | 0.0 | 7.0 | 0.00 | 0.01 | 0.00 | 22 | 1024.0 |
| 20260507152506 | 46 | 281 | 2.0 | 5.0 | 0.00 | 0.01 | 0.00 | 24 | 1024.0 |
| 20260507152010 | 46 | 134 | 0.0 | 2.0 | 0.00 | 0.01 | 0.00 | 23 | 1024.2 |
| 20260507151519 | 45 | 146 | 1.0 | 3.0 | 0.00 | 0.01 | 0.00 | 25 | 1024.2 |
| 20260507151007 | 45 | 115 | 2.0 | 5.0 | 0.00 | 0.01 | 0.00 | 23 | 1024.2 |
| 20260507150506 | 45 | 281 | 2.0 | 5.0 | 0.00 | 0.01 | 0.00 | 23 | 1024.1 |
| 20260507150031 | 45 | 105 | 2.0 | 4.0 | 0.00 | 0.01 | 0.00 | 26 | 1024.2 |
| 20260507145507 | 44 | 19 | 1.0 | 3.0 | 0.00 | 0.01 | 0.00 | 24 | 1024.1 |
| 20260507145009 | 43 | 71 | 1.0 | 3.0 | 0.00 | 0.01 | 0.00 | 23 | 1024.2 |
| 20260507144527 | 42 | 340 | 1.0 | 2.0 | 0.00 | 0.01 | 0.00 | 28 | 1024.2 |
| 20260507144003 | 41 | 5 | 0.0 | 2.0 | 0.00 | 0.01 | 0.00 | 28 | 1024.2 |
| 20260507143502 | 40 | 352 | 0.0 | 2.0 | 0.00 | 0.01 | 0.00 | 29 | 1024.2 |
| 20260507143012 | 39 | 352 | 0.0 | 2.0 | 0.00 | 0.01 | 0.00 | 28 | 1024.2 |
| 20260507142506 | 38 | 352 | 0.0 | 2.0 | 0.00 | 0.01 | 0.00 | 37 | 1024.1 |
| 20260507142004 | 37 | 352 | 1.0 | 2.0 | 0.00 | 0.01 | 0.00 | 39 | 1024.3 |
| 20260507141513 | 36 | 352 | 0.0 | 2.0 | 0.00 | 0.01 | 0.00 | 41 | 1024.2 |
| 20260507141007 | 35 | 352 | 1.0 | 2.0 | 0.00 | 0.01 | 0.00 | 41 | 1024.2 |
| 20260507140511 | 34 | 348 | 1.0 | 2.0 | 0.00 | 0.01 | 0.00 | 45 | 1024.2 |
| 20260507140021 | 33 | 5 | 1.0 | 2.0 | 0.00 | 0.01 | 0.00 | 44 | 1024.1 |
| 20260507135510 | 32 | 5 | 0.0 | 2.0 | 0.00 | 0.01 | 0.00 | 47 | 1024.1 |
| 20260507135015 | 31 | 5 | 1.0 | 2.0 | 0.00 | 0.01 | 0.00 | 49 | 1024.1 |
| 20260507134523 | 30 | 9 | 1.0 | 2.0 | 0.00 | 0.01 | 0.00 | 49 | 1024.1 |
| 20260507134010 | 29 | 5 | 1.0 | 2.0 | 0.00 | 0.01 | 0.00 | 45 | 1024.0 |
| 20260507133509 | 28 | 5 | 1.0 | 2.0 | 0.00 | 0.01 | 0.00 | 46 | 1024.0 |
| 20260507133028 | 28 | 30 | 1.0 | 2.0 | 0.00 | 0.01 | 0.00 | 48 | 1023.9 |
| 20260507132504 | 27 | 20 | 1.0 | 2.0 | 0.00 | 0.01 | 0.00 | 47 | 1023.9 |
| 20260507132003 | 26 | 24 | 1.0 | 3.0 | 0.00 | 0.01 | 0.00 | 46 | 1023.9 |
| 20260507131520 | 25 | 44 | 1.0 | 3.0 | 0.00 | 0.01 | 0.00 | 46 | 1023.9 |
| 20260507131003 | 25 | 46 | 2.0 | 3.0 | 0.00 | 0.01 | 0.00 | 46 | 1023.7 |
| 20260507130504 | 25 | 30 | 1.0 | 3.0 | 0.00 | 0.01 | 0.00 | 46 | 1023.9 |
| 20260507130020 | 25 | 30 | 2.0 | 3.0 | 0.00 | 0.01 | 0.00 | 47 | 1023.7 |
| 20260507125511 | 26 | 13 | 1.0 | 3.0 | 0.00 | 0.01 | 0.00 | 46 | 1023.8 |
| 20260507125007 | 25 | 26 | 2.0 | 3.0 | 0.00 | 0.01 | 0.00 | 47 | 1023.8 |
| 20260507124523 | 25 | 49 | 2.0 | 3.0 | 0.00 | 0.01 | 0.00 | 47 | 1023.7 |
| 20260507124007 | 25 | 348 | 2.0 | 3.0 | 0.00 | 0.01 | 0.00 | 47 | 1023.7 |
| 20260507123503 | 25 | 34 | 2.0 | 3.0 | 0.00 | 0.01 | 0.00 | 47 | 1023.7 |
| 20260507123005 | 25 | 17 | 1.0 | 2.0 | 0.00 | 0.01 | 0.00 | 47 | 1023.6 |
| 20260507122504 | 24 | 11 | 1.0 | 3.0 | 0.00 | 0.01 | 0.00 | 47 | 1023.6 |
| 20260507122004 | 24 | 12 | 1.0 | 2.0 | 0.00 | 0.01 | 0.00 | 47 | 1023.6 |
| 20260507121510 | 24 | 28 | 1.0 | 2.0 | 0.00 | 0.01 | 0.00 | 47 | 1023.6 |
| 20260507121005 | 24 | 17 | 2.0 | 3.0 | 0.00 | 0.01 | 0.00 | 46 | 1023.6 |
| 20260507120503 | 24 | 28 | 1.0 | 3.0 | 0.00 | 0.01 | 0.00 | 46 | 1023.6 |
| 20260507120024 | 24 | 38 | 1.0 | 2.0 | 0.00 | 0.01 | 0.00 | 46 | 1023.6 |
| 20260507115504 | 24 | 360 | 1.0 | 3.0 | 0.00 | 0.01 | 0.00 | 47 | 1023.6 |
| 20260507115003 | 24 | 17 | 1.0 | 3.0 | 0.00 | 0.01 | 0.00 | 47 | 1023.5 |
| 20260507114524 | 24 | 17 | 1.0 | 2.0 | 0.00 | 0.01 | 0.00 | 47 | 1023.6 |
| 20260507114007 | 24 | 19 | 2.0 | 3.0 | 0.00 | 0.01 | 0.00 | 47 | 1023.5 |
| 20260507113507 | 23 | 24 | 1.0 | 3.0 | 0.00 | 0.01 | 0.00 | 46 | 1023.4 |
| 20260507113023 | 24 | 12 | 2.0 | 3.0 | 0.00 | 0.01 | 0.00 | 47 | 1023.5 |
| 20260507112510 | 24 | 13 | 1.0 | 3.0 | 0.00 | 0.01 | 0.00 | 44 | 1023.5 |
| 20260507112005 | 24 | 24 | 1.0 | 3.0 | 0.00 | 0.01 | 0.00 | 44 | 1023.4 |
| 20260507111507 | 24 | 31 | 2.0 | 2.0 | 0.00 | 0.01 | 0.00 | 43 | 1023.4 |
| 20260507111002 | 24 | 42 | 1.0 | 2.0 | 0.00 | 0.01 | 0.00 | 43 | 1023.5 |
| 20260507110504 | 24 | 46 | 1.0 | 2.0 | 0.00 | 0.01 | 0.00 | 42 | 1023.5 |
| 20260507110010 | 24 | 47 | 2.0 | 2.0 | 0.00 | 0.01 | 0.00 | 43 | 1023.4 |
| 20260507105503 | 24 | 21 | 1.0 | 2.0 | 0.00 | 0.01 | 0.00 | 43 | 1023.3 |
| 20260507105004 | 23 | 30 | 1.0 | 3.0 | 0.00 | 0.01 | 0.00 | 43 | 1023.2 |
| 20260507104514 | 23 | 28 | 1.0 | 3.0 | 0.00 | 0.01 | 0.00 | 44 | 1023.1 |
| 20260507104004 | 23 | 360 | 3.0 | 3.0 | 0.00 | 0.01 | 0.00 | 46 | 1023.3 |
| 20260507103510 | 24 | 9 | 2.0 | 4.0 | 0.00 | 0.01 | 0.00 | 44 | 1023.5 |
| 20260507103018 | 24 | 38 | 1.0 | 4.0 | 0.00 | 0.01 | 0.00 | 44 | 1023.2 |
| 20260507102510 | 25 | 44 | 3.0 | 4.0 | 0.00 | 0.01 | 0.00 | 46 | 1023.0 |
| 20260507102012 | 25 | 55 | 2.0 | 4.0 | 0.00 | 0.01 | 0.00 | 41 | 1023.1 |
| 20260507101524 | 24 | 49 | 3.0 | 4.0 | 0.00 | 0.01 | 0.00 | 46 | 1023.2 |
| 20260507101007 | 24 | 59 | 1.0 | 3.0 | 0.00 | 0.01 | 0.00 | 46 | 1023.2 |
| 20260507100507 | 24 | 18 | 1.0 | 3.0 | 0.00 | 0.01 | 0.00 | 43 | 1023.3 |
| 20260507100009 | 24 | 45 | 2.0 | 3.0 | 0.00 | 0.01 | 0.00 | 46 | 1022.9 |
| 20260507095506 | 24 | 344 | 2.0 | 3.0 | 0.00 | 0.01 | 0.00 | 46 | 1022.8 |
| 20260507095004 | 24 | 47 | 2.0 | 2.0 | 0.00 | 0.01 | 0.00 | 46 | 1022.9 |
| 20260507094512 | 24 | 45 | 0.0 | 3.0 | 0.00 | 0.01 | 0.00 | 44 | 1023.0 |
| 20260507094005 | 24 | 54 | 2.0 | 3.0 | 0.00 | 0.01 | 0.00 | 47 | 1023.2 |
| 20260507093504 | 24 | 9 | 2.0 | 2.0 | 0.00 | 0.01 | 0.00 | 45 | 1023.0 |
| 20260507093022 | 25 | 56 | 1.0 | 2.0 | 0.00 | 0.01 | 0.00 | 44 | 1022.7 |
| 20260507092504 | 26 | 56 | 0.0 | 2.0 | 0.00 | 0.01 | 0.00 | 44 | 1022.8 |
| 20260507092010 | 27 | 56 | 1.0 | 2.0 | 0.00 | 0.01 | 0.00 | 39 | 1022.9 |
| 20260507091519 | 27 | 67 | 0.0 | 2.0 | 0.00 | 0.01 | 0.00 | 39 | 1022.9 |
| 20260507091007 | 26 | 67 | 1.0 | 3.0 | 0.00 | 0.01 | 0.00 | 39 | 1023.0 |
| 20260507090507 | 26 | 67 | 2.0 | 3.0 | 0.00 | 0.01 | 0.00 | 40 | 1022.8 |
| 20260507090026 | 27 | 296 | 1.0 | 3.0 | 0.00 | 0.01 | 0.00 | 40 | 1022.7 |
| 20260507085508 | 27 | 82 | 2.0 | 3.0 | 0.00 | 0.01 | 0.00 | 38 | 1022.7 |
| 20260507085010 | 27 | 40 | 0.0 | 2.0 | 0.00 | 0.01 | 0.00 | 39 | 1022.7 |
| 20260507084512 | 27 | 40 | 0.0 | 2.0 | 0.00 | 0.01 | 0.00 | 40 | 1022.7 |
| 20260507084003 | 27 | 40 | 0.0 | 2.0 | 0.00 | 0.01 | 0.00 | 39 | 1022.9 |
| 20260507083504 | 27 | 40 | 1.0 | 2.0 | 0.00 | 0.01 | 0.00 | 39 | 1022.5 |
| 20260507083014 | 27 | 40 | 2.0 | 2.0 | 0.00 | 0.01 | 0.00 | 41 | 1022.4 |
| 20260507082506 | 26 | 32 | 1.0 | 2.0 | 0.00 | 0.01 | 0.00 | 43 | 1022.5 |
| 20260507082006 | 27 | 352 | 1.0 | 2.0 | 0.00 | 0.01 | 0.00 | 43 | 1022.7 |
| 20260507081533 | 27 | 27 | 0.0 | 3.0 | 0.00 | 0.01 | 0.00 | 42 | 1022.7 |
| 20260507081006 | 26 | 27 | 2.0 | 5.0 | 0.00 | 0.01 | 0.00 | 44 | 1022.7 |
| 20260507080506 | 25 | 25 | 2.0 | 5.0 | 0.00 | 0.01 | 0.00 | 46 | 1022.7 |
| 20260507080024 | 25 | 10 | 2.0 | 4.0 | 0.00 | 0.01 | 0.00 | 47 | 1022.7 |
| 20260507075512 | 26 | 360 | 2.0 | 3.0 | 0.00 | 0.01 | 0.00 | 46 | 1022.6 |